This is the latest recevied weather packets stored in our database for station/object K2BIG. If no packets are shown the sender has not sent any weather packets the latest 10 day(s).
| Time | Temp. | Humidity | Pressure | Rain* | Wind** | Luminosity | Snow |
|---|---|---|---|---|---|---|---|
| 1777914017 | 20.56° C | 41% | 1010.1 hPa | 0 mm | - | - | - |
| 1777913717 | 20° C | 39% | 1010.2 hPa | 0 mm | - | - | - |
| 1777913416 | 20.56° C | 38% | 1010.2 hPa | 0 mm | - | - | - |
| 1777913116 | 21.11° C | 37% | 1010.3 hPa | 0 mm | - | - | - |
| 1777912816 | 21.11° C | 38% | 1010.4 hPa | 0 mm | - | - | - |
| 1777912516 | 21.11° C | 39% | 1010.5 hPa | 0 mm | - | - | - |
| 1777912216 | 21.11° C | 37% | 1010.5 hPa | 0 mm | - | - | - |
| 1777911916 | 21.11° C | 40% | 1010.5 hPa | 0 mm | - | - | - |
| 1777911616 | 21.11° C | 39% | 1010.6 hPa | 0 mm | - | - | - |
| 1777911316 | 20.56° C | 43% | 1010.7 hPa | 0 mm | - | - | - |
| 1777911016 | 20.56° C | 42% | 1010.7 hPa | 0 mm | - | - | - |
| 1777910716 | 20° C | 38% | 1010.7 hPa | 0 mm | - | - | - |
| 1777910416 | 20° C | 42% | 1010.7 hPa | 0 mm | - | - | - |
| 1777910116 | 20° C | 39% | 1010.7 hPa | 0 mm | - | - | - |
| 1777909816 | 20° C | 39% | 1010.8 hPa | 0 mm | - | - | - |
| 1777909516 | 20° C | 39% | 1010.8 hPa | 0 mm | - | - | - |
| 1777909216 | 20° C | 39% | 1011 hPa | 0 mm | - | - | - |
| 1777908916 | 20° C | 40% | 1010.9 hPa | 0 mm | - | - | - |
| 1777908616 | 20° C | 40% | 1011.1 hPa | 0 mm | - | - | - |
| 1777908316 | 19.44° C | 43% | 1011.1 hPa | 0 mm | - | - | - |
| 1777908016 | 19.44° C | 39% | 1011.1 hPa | 0 mm | - | - | - |
| 1777907716 | 19.44° C | 41% | 1011.3 hPa | 0 mm | - | - | - |
| 1777907416 | 19.44° C | 40% | 1011.2 hPa | 0 mm | - | - | - |
| 1777907116 | 19.44° C | 43% | 1011.3 hPa | 0 mm | - | - | - |
| 1777906816 | 19.44° C | 39% | 1011.4 hPa | 0 mm | - | - | - |
* Rain latest hour (hover to see other rain measurements)
** Current wind speed in m/s (hover to see current wind gust speed)